Regional Weather Roundup
Issued by NWS

Home | Current Version | Previous Version | Graphics & Text | Print | Product List | Glossary On
Versions: 1 2 3 4 5 6 7 8 9 10 11 12 13 14 15 16 17 18 19 20 21 22 23 24 25 26 27 28 29 30 31 32 33 34 35 36 37 38 39 40 41 42 43 44 45 46 47 48 49 50
000
ASUS43 KFSD 192010
RWRSD

WEATHER ROUNDUP FOR SOUTH DAKOTA
NATIONAL WEATHER SERVICE SIOUX FALLS SD
300 PM CDT SUN APR 19 2015

NOTE: "FAIR" INDICATES FEW OR NO CLOUDS BELOW 12,000 FEET WITH NO
SIGNIFICANT WEATHER AND/OR OBSTRUCTIONS TO VISIBILITY.


SDZ001>005-009-010-012>017-192100-
NORTHWEST AND NORTH CENTRAL SOUTH DAKOTA

CITY           SKY/WX    TMP DP  RH WIND       PRES   REMARKS
BUFFALO          N/A     47  25  42 NW39G47   29.94S
FAITH            N/A     47  27  45 NW30G43   29.96R
MOBRIDGE       PTSUNNY   53  32  44 N25G33    29.85F
$$

SDZ012>016-024>037-041>051-057-063-072>074-192100-
SOUTHWEST AND SOUTH CENTRAL SOUTH DAKOTA

CITY           SKY/WX    TMP DP  RH WIND       PRES   REMARKS
RAPID CTY ARPT MOSUNNY   53  22  29 NW36G47   29.99F
PIERRE         PTSUNNY   53  30  41 N23G36    29.90S
CUSTER         CLOUDY    40  16  37 NW17G31   30.01S
ELLSWORTH AFB  PTSUNNY   50  22  33 NW29G48   29.98F
PHILIP         CLOUDY    51  24  34 N26G36    29.97S
PINE RIDGE     PTSUNNY   52  24  33 N18G28    30.01F
SPEARFISH      FAIR      46  19  34 NW29G39   30.03F
WINNER         CLOUDY    52  27  38 NW30G39   29.91F
$$

SDZ004>011-016>023-039-040-192100-
NORTHEAST SOUTH DAKOTA

CITY           SKY/WX    TMP DP  RH WIND       PRES   REMARKS
ABERDEEN       CLOUDY    55  30  38 NW25G35   29.82R
WATERTOWN      CLOUDY    53  32  44 NW25G35   29.75F
BROOKINGS      CLOUDY    52  36  54 NW23G32   29.76S
SISSETON         N/A     53  38  56 N33G43    29.72S
$$

SDZ017-020-022-023-036>040-048>070-192100-
SOUTHEAST SOUTH DAKOTA

CITY           SKY/WX    TMP DP  RH WIND       PRES   REMARKS
SIOUX FALLS    CLOUDY    54  35  48 NW25G37   29.75F
HURON          CLOUDY    57  30  35 NW26G38   29.81F
CHAMBERLAIN    CLOUDY    50  31  47 NW29      29.88F
MITCHELL       CLOUDY    55  31  39 NW28G35   29.83F
YANKTON        CLOUDY    57  34  41 NW25G35   29.79F
$$

ABBREVIATIONS USED IN REMARKS
   TC - TEMPERATURE IN CELSIUS
  WCI - WIND CHILL INDEX
   HX - HEAT INDEX
  VSB - VISIBILITY



USA.gov is the U.S. government's official web portal to all federal, state and local government web resources and services.